Content
SEND FEEDBACK

Daily
Averages
Monthly
Summary
United States of America

BANTA, CALIFORNIA


Home > North America > United States > California
Elevation: 129 feet     Latitude: 37 42N     Longitude: 121 25W

WEATHER
 
SELECT A DAY
Number of Records: 184,695;   Date Range: 1/1/95 - 7/23/14
 
SHARE

PRINT THIS DATA

[ ← Previous Day ]
WEATHER ALMANAC - JANUARY 31, 2013
[ Next Day → ]
[ °C ]   °F
Weather ElementAverageHighLow
Temperature47.6 °F64.9 °F (3:55 pm)35.6 °F (6:53 am)
Dewpoint40.4 °F44.1 °F (10:55 am)35.1 °F (6:55 am)
Humidity79.3 %100 % (6:53 am)45 % (3:55 pm)
Barometer30.25 in30.31 in (9:55 am)30.19 in (4:55 pm)
Wind Speed0.8 mph3.5 mph (3:55 am)
Weather ElementAverage
Visibility6 mi
Wind DirectionENE (59.2 °)

Weather ElementTotal
Precipitation---
Heating Degree Days14.8 (Base 65)
Growing Degree Days0.3 (Base 50)
Averaged from 25 records on January 31, 2013
WEATHER CONDITIONS BREAKOUT
WIND DIRECTION BREAKOUT
WEATHER BY HOUR - JANUARY 31, 2013
[ °C ]   °F
Local TimeTemperatureDewpointHumidityBarometerVisibilityWind DirectionWind SpeedGust SpeedPrecipitationEventsConditions
1:55 AM37.9 °F36.0 °F93 %30.29 in5.0 miCalmClear
2:55 AM39.0 °F37.0 °F93 %30.28 in5.0 miCalmClear
3:55 AM37.0 °F36.0 °F96 %30.27 in5.0 miSE (130°)3.5 mphClear
4:55 AM37.0 °F36.0 °F96 %30.28 in4.0 miCalmClear
5:55 AM37.9 °F37.0 °F97 %30.28 in4.0 miCalmClear
6:53 AM35.6 °F35.6 °F100 %30.28 in2.5 miCalmClear
6:55 AM36.0 °F35.1 °F97 %30.28 in2.0 miCalmClear
7:55 AM37.0 °F36.0 °F96 %30.30 in2.0 miNNW (330°)3.5 mphClear
8:03 AM37.4 °F37.4 °F100 %30.30 in3.0 miCalmClear
8:55 AM45.0 °F42.1 °F90 %30.30 in8.0 miCalmClear
9:55 AM48.9 °F43.0 °F80 %30.31 in7.0 miCalmClear
10:55 AM53.1 °F44.1 °F71 %30.30 in8.0 miCalmClear
11:55 AM57.0 °F44.1 °F62 %30.28 in7.0 miCalmClear
12:55 PM60.1 °F44.1 °F55 %30.25 in8.0 miCalmClear
1:55 PM64.0 °F44.1 °F48 %30.22 in9.0 miSouth (190°)3.5 mphClear
2:55 PM64.0 °F43.0 °F46 %30.20 in10.0 miCalmClear
3:55 PM64.9 °F43.0 °F45 %30.20 in10.0 miCalmClear
4:55 PM63.0 °F42.1 °F46 %30.19 in10.0 miCalmClear
5:55 PM57.0 °F41.0 °F55 %30.19 in10.0 miCalmClear
6:55 PM51.1 °F44.1 °F77 %30.19 in7.0 miCalmClear
7:55 PM52.0 °F44.1 °F74 %30.19 in6.0 miCalmHaze
8:55 PM46.9 °F43.0 °F86 %30.19 in6.0 miCalmClear
9:55 PM44.1 °F42.1 °F93 %30.19 in4.0 miWest (260°)3.5 mphClear
10:55 PM44.1 °F42.1 °F93 %30.19 in4.0 miWNW (300°)3.5 mphClear
11:55 PM41.0 °F39.0 °F93 %30.20 in4.0 miWest (270°)3.5 mphClear
Hourly data recorded from KSCK, located miles away from Banta, California







STORIES FROM OUR PARTNERS